Location: Fort Wayne
(41.1310°N, 85.1290°W)
Time: 20:30:42
(UTC-04:00)

Meteor 2-9 Rocket - Visible Passes

Search period start: 27 March 2017 00:00
Search period end: 06 April 2017 00:00
Orbit: 792 x 895 km, 81.3° (Epoch: 26 March)

Date Brightness Start Highest point End Pass type
(mag) Time Alt. Az. Time Alt. Az. Time Alt. Az.
27 Mar 5.0 05:38:39 10° N 05:44:11 52° ENE 05:49:32 10° SSE visible
27 Mar 7.2 20:30:56 10° WSW 20:34:52 18° WNW 20:38:50 10° NNW visible
28 Mar 5.2 05:24:36 10° N 05:30:02 46° ENE 05:35:17 10° SSE visible
29 Mar 5.4 05:10:34 10° N 05:15:53 40° ENE 05:21:01 10° SE visible
29 Mar 5.1 06:53:52 10° NW 06:58:21 25° W 07:02:44 10° SW visible
30 Mar 5.7 04:56:33 10° N 05:01:43 36° ENE 05:06:42 10° SE visible
30 Mar 5.0 06:39:36 10° NNW 06:44:18 28° W 06:48:53 10° SW visible
31 Mar 5.8 04:42:34 10° N 04:47:32 32° ENE 04:52:22 10° SE visible
31 Mar 4.8 06:25:21 10° NNW 06:30:15 32° W 06:35:01 10° SSW visible
01 Apr 6.0 04:28:36 10° NNE 04:33:21 28° ENE 04:38:00 10° SE visible
01 Apr 4.7 06:11:07 10° NNW 06:16:11 36° W 06:21:06 10° SSW visible
02 Apr 6.2 04:14:38 10° NNE 04:19:10 25° ENE 04:23:35 10° SE visible
02 Apr 4.5 05:56:54 10° NNW 06:02:06 41° W 06:07:09 10° SSW visible
03 Apr 6.3 04:00:42 10° NNE 04:04:58 22° ENE 04:09:07 10° ESE visible
03 Apr 4.3 05:42:42 10° NNW 05:48:02 47° W 05:53:04 10° SSW visible
04 Apr 6.5 03:46:49 10° NNE 03:50:46 19° ENE 03:54:36 10° ESE visible
04 Apr 4.2 05:28:32 10° NNW 05:33:56 54° W 05:37:15 22° SSW visible
05 Apr 6.6 03:32:59 10° NNE 03:36:33 17° ENE 03:40:03 10° ESE visible
05 Apr 4.1 05:14:22 10° NNW 05:19:50 62° W 05:22:00 35° SSW visible
